カタログに戻る

CATCH-1

運用中科学LEO
NORAD 60089·PAYLOAD·🇨🇳 China
この衛星名は、まだ公式ソースで確認されていません。

打ち上げ Jun 22, 2024 から Xichang Satellite Launch Center

Loading…

次のパス (今後24時間)

TLE

最新Source: Space-Track

元期: Sep 14, 2026, 12:02 UTC

1 60089U 24116B   26257.50186882  .00001047  00000-0  10888-3 0  9997
2 60089  28.9957 272.9504 0004975 226.5064 133.5116 14.83701642120878

AllMySatでCATCH-1をリアルタイム追跡

Download on the App Store